Simultaneous Nadir Overpasses (SNOs) Predictions

Prediction of SNOs between NOAA-15 and METOP-C Satellite Orbit:

Table of predicted SNOs for the next 14.0 days since TLE Epoch: 3/4/2019
Index Date (NOAA-15) Time (NOAA-15) Lat,Lon (NOAA-15) SZA (NOAA-15 ) Date (METOP-C) Time (METOP-C) Lat,Lon (METOP-C) SZA (METOP-C ) Distance(km) Time Diff (sec)
1 03/18/2019 11:23:38 -80.77,-138.26 97.03 03/18/2019 11:22:28 -80.78,-138.10 97.03 2.92 70
2 03/18/2019 12:14:13 80.77, 29.11 82.97 03/18/2019 12:13:09 80.78, 29.21 82.96 1.95 64
3 03/18/2019 13:04:41 -80.77,-163.58 97.06 03/18/2019 13:03:50 -80.77,-163.57 97.07 0.32 51
4 03/18/2019 13:55:15 80.77, 3.78 82.94 03/18/2019 13:54:30 80.77, 3.74 82.92 0.78 45
5 03/18/2019 14:45:43 -80.77, 171.09 97.09 03/18/2019 14:45:11 -80.76, 170.96 97.12 2.62 32
6 03/18/2019 15:36:18 80.77, -21.55 82.91 03/18/2019 15:35:51 80.78, -21.38 82.92 3.18 27
7 03/18/2019 16:26:46 -80.78, 145.76 97.12 03/18/2019 16:26:32 -80.77, 145.85 97.12 1.60 14
8 03/18/2019 17:17:21 80.78, -46.88 82.88 03/18/2019 17:17:13 80.77, -46.84 82.87 0.84 8
9 03/18/2019 18:07:49 -80.78, 120.43 97.14 03/18/2019 18:07:54 -80.77, 120.38 97.16 1.88 5
10 03/18/2019 18:58:24 80.78, -72.21 82.85 03/18/2019 18:58:35 80.77, -72.31 82.83 2.45 11
11 03/18/2019 19:48:52 -80.79, 95.10 97.17 03/18/2019 19:49:15 -80.78, 95.26 97.16 2.91 23
12 03/18/2019 20:39:27 80.79, -97.54 82.82 03/18/2019 20:39:56 80.78, -97.43 82.83 2.24 29
13 03/18/2019 21:29:55 -80.79, 69.77 97.20 03/18/2019 21:30:37 -80.77, 69.79 97.20 1.90 42




NCC Satellite Simultaneous Nadir Overpasses (SNOs) Prediction Service
